Regional Weather Roundup
Issued by NWS

Home | Current Version | Previous Version | Graphics & Text | Print | Product List | Glossary On
Versions: 1 2 3 4 5 6 7 8 9 10 11 12 13 14 15 16 17 18 19 20 21 22 23 24 25 26 27 28 29 30 31 32 33 34 35 36 37 38 39 40 41 42 43 44 45 46 47 48 49 50
000
ASUS43 KBIS 230620
RWRND

NORTH DAKOTA REGIONAL WEATHER ROUNDUP
NATIONAL WEATHER SERVICE BISMARCK ND
100 AM CDT SAT MAY 23 2015

NOTE: "FAIR" INDICATES FEW OR NO CLOUDS BELOW 12,000 FEET WITH NO
SIGNIFICANT WEATHER AND/OR OBSTRUCTIONS TO VISIBILITY.


NDZ001>003-009>011-017-230700-
NORTHWEST NORTH DAKOTA

CITY           SKY/WX    TMP DP  RH WIND       PRES   REMARKS
WILLISTON      PTCLDY    59  37  44 SE7       30.08R
6HR MIN TEMP:  58; 6HR MAX TEMP:  75;

MINOT          MOCLDY    58  41  53 SE3       30.09R
MINOT AFB      PTCLDY    55  44  66 S6        30.08R
$$

NDZ018>021-031>035-040>046-230700-
SOUTHWEST NORTH DAKOTA

CITY           SKY/WX    TMP DP  RH WIND       PRES   REMARKS
BISMARCK       PTCLDY    53  41  63 CALM      30.12S
6HR MIN TEMP:  52; 6HR MAX TEMP:  73;

DICKINSON      PTCLDY    46  35  65 S10       30.08S
GARRISON         N/A     55  42  61 S3        30.11R
6HR MIN TEMP:  54; 6HR MAX TEMP:  72;

HETTINGER ARPT PTCLDY    46  38  73 SE5       30.10F
$$

NDZ004>008-012>016-024-026-027-054-230700-
NORTHEAST NORTH DAKOTA

CITY           SKY/WX    TMP DP  RH WIND       PRES   REMARKS
GRAND FORKS    CLEAR     56  42  59 S6        30.12R
GRND FRKS AFB  CLEAR     52  43  69 SW3       30.12S
DEVILS LAKE    CLEAR     54  41  62 CALM      30.12R
$$

NDZ022-023-025-028>030-036>039-047>053-230700-
SOUTHEAST NORTH DAKOTA

CITY           SKY/WX    TMP DP  RH WIND       PRES   REMARKS
FARGO          CLEAR     60  39  45 SE8       30.13S
6HR MIN TEMP:  60; 6HR MAX TEMP:  74;

JAMESTOWN      CLEAR     56  38  50 SE5       30.12S
$$



USA.gov is the U.S. government's official web portal to all federal, state and local government web resources and services.